Location: Emblem
(62.4273°N, 6.4710°E)
Time: 06:33:53
(UTC+02:00)

Transit 2A - Pass Details

Date: 10 March 2024
Orbit: 596 x 956 km, 66.7° (Epoch: 24 April)

Event Time Altitude Azimuth Distance (km) Brightness Sun altitude
Rises 22:57:46 0° 298° (WNW) 2,927 9.9 -28.0°
Reaches altitude 10° 22:59:58 10° 300° (WNW) 2,053 8.9 -28.1°
Enters shadow 23:03:48 59° 324° (NW) 788 6.2 -28.3°
